Regional Weather Roundup
Issued by NWS

Home | Current Version | Previous Version | Graphics & Text | Print | Product List | Glossary On
Versions: 1 2 3 4 5 6 7 8 9 10 11 12 13 14 15 16 17 18 19 20 21 22 23 24 25 26 27 28 29 30 31 32 33 34 35 36 37 38 39 40 41 42 43 44 45 46 47 48 49 50
000
ASUS43 KIND 250309
RWRIN

WEATHER ROUNDUP FOR INDIANA
NATIONAL WEATHER SERVICE INDIANAPOLIS IN
1100 PM EDT SAT SEP 24 2016

NOTE: "FAIR" INDICATES FEW OR NO CLOUDS BELOW 12,000 FEET WITH NO
SIGNIFICANT WEATHER AND/OR OBSTRUCTIONS TO VISIBILITY.

* - STATION DOES NOT REPORT WEATHER SUCH AS PRECIPITATION OR FOG.

+ - STATION NOT QUALITY CONTROLLED BY THE NATIONAL WEATHER SERVICE.
    USE DATA WITH CAUTION...ESPECIALLY DEWPOINT AND RELATIVE
    HUMIDITY OBSERVATIONS.

INZ001>003-010>013-019-020-250400-
NORTHWEST INDIANA

CITY           SKY/WX    TMP DP  RH WIND       PRES   REMARKS
GARY /AIRPORT/ CLEAR     70  64  83 E6        30.14R
KNOX *+        CLEAR     64  45  48 SE5       30.14S
LA PORTE +     CLEAR     67  67 100 E3        30.16R
MICHIGAN CITY+ CLEAR     64  61  88 CALM      30.15S
MONTICELLO +   CLEAR     69  61  76 CALM      30.12S
RENSSELAER +   CLEAR     68  64  88 NE5       30.13S
VALPARAISO     CLEAR     65  61  87 E5        30.15R

$$

LMZ046-743>745-250400-
SOUTHERN LAKE MICHIGAN

STATION/POSITION TIME  TEMP    WIND        PRES    WAVE
                       AIR SEA DIR/SP/G            HT
                 (UTC) (F)     (DEG/KT/KT) (MB)    (FT)
BURNS HARBOR     0211   67      80/  5/ 10 1020.7R
MICHIGAN CITY    0200   69      60/  7/  9   N/A
5NW MICH CITY    0300   69 70   80/ 10/ 12   N/A     1

$$

INZ004-005-014>016-021>024-250400-
NORTH CENTRAL INDIANA

CITY           SKY/WX    TMP DP  RH WIND       PRES   REMARKS
GOSHEN         CLEAR     63  56  78 E8        30.17R
LOGANSPORT +   CLEAR     66  63  88 E5        30.14S
PERU/GRISSOM   CLEAR     68  63  83 E6        30.13R
ROCHESTER +    CLEAR     66  63  88 E5        30.15S
SOUTH BEND     CLEAR     66  59  78 E7        30.17R
WARSAW +       CLEAR     63  52  67 E6        30.17R

$$

INZ006>009-017-018-025>027-250400-
NORTHEAST INDIANA

CITY           SKY/WX    TMP DP  RH WIND       PRES   REMARKS
ANGOLA *+        N/A     61  50  67 E7        30.19S
AUBURN +       CLEAR     61  55  82 E6        30.19S
FORT WAYNE     CLEAR     64  57  78 E8        30.17S
HUNTINGTON +   CLEAR     64  58  83 E7        30.16S
KENDALLVILLE + CLEAR     62  56  82 E7        30.19R

$$

INZ028-029-035-036-043>045-051>053-250400-
WEST CENTRAL INDIANA

CITY           SKY/WX    TMP DP  RH WIND       PRES   REMARKS
CRAWFORDSVL +  CLEAR     67  67 100 E3        30.12S
GREENCASTLE +  CLEAR     70  70 100 E3        30.12R
LAFAYETTE      CLEAR     70  66  87 E9        30.11R
TERRE HAUTE    CLEAR     73  67  81 E7        30.09R

$$

INZ030>032-037>040-046>048-054>057-064-065-250400-
CENTRAL INDIANA

CITY           SKY/WX    TMP DP  RH WIND       PRES   REMARKS
FISHERS *+     CLEAR     68  66  94 E3        30.13R
GREENWOOD *+   CLEAR    N/A N/A N/A E3        30.13R
INDIANAPOLIS   CLEAR     74  65  73 E8        30.11R
-EAGLE CREEK   CLEAR     72  66  81 E3        30.12R
MARION +       CLEAR     66  60  79 E9        30.15S
MT COMFORT *+  CLEAR     66  64  94 NE5       30.13S
SHELBYVILLE    CLEAR     70  65  84 E6        30.11S
ZIONSVILLE +   CLEAR     67  64  89 E5        30.14R

$$

INZ033-034-041-042-049-050-058-059-250400-
EAST CENTRAL INDIANA

CITY           SKY/WX    TMP DP  RH WIND       PRES   REMARKS
MUNCIE         CLEAR     68  61  78 E9        30.14S

$$

INZ060-061-067>069-081>083-085>088-250400-
SOUTHWEST INDIANA

CITY           SKY/WX    TMP DP  RH WIND       PRES   REMARKS
EVANSVILLE     CLEAR     73  67  81 CALM      30.07R
HUNTINGBURG *+   N/A     73  64  73 CALM      30.08S
WASHINGTON +   CLEAR     70  69  98 MISG      30.07S

$$

INZ062-063-066-070>080-084-089>092-250400-
SOUTH CENTRAL AND SOUTHEAST INDIANA

CITY           SKY/WX    TMP DP  RH WIND       PRES   REMARKS
BLOOMINGTON    CLEAR     73  67  81 E5        30.11R
MADISON *+     CLEAR     72  64  78 NE5       30.13S
NORTH VERNON + CLEAR    N/A N/A N/A E5        30.12S
SEYMOUR +      CLEAR     73  68  83 CALM      30.10S

$$





USA.gov is the U.S. government's official web portal to all federal, state and local government web resources and services.